[[{"header":{"parameterUnit":"m.s-1","parameterCategory":1,"la1":30.2991,"la2":30.254,"lo1":-89.0895,"lo2":-89.0444,"dy":0.0017,"dx":0.0017,"nx":28,"ny":28,"refTime":"2024-08-06T03:00:00:Z","depth":0,"parameterNumber":2,"parameterNumberName":"U-component_of_WINDS"},"data":[0,0,0,0,0,0,0,0,0,0,0,0,0,0,0,0,0,0,0,0,0,0,0,0,0,0,0,0,0,0,0,0,0,0,0,0,0,0,0,0,0,0,0,0,0,0,0,0,0,0,0,0,0,0,0,0,0,0,3.339,3.339,0,3.3408,3.3408,3.3408,3.3335,3.3333,3.3331,3.3328,3.3347,3.335,3.3352,0,0,0,0,0,0,0,0,0,0,0,0,0,3.3295,3.3297,3.339,3.339,3.3391,3.3408,3.3408,3.3408,3.3335,3.3333,3.333,3.3328,3.3346,3.3349,3.3352,0,0,0,0,0,0,0,0,0,0,0,0,0,3.3327,3.3298,3.339,3.3356,3.3353,3.3408,3.3408,3.3409,3.3336,3.3333,3.3329,3.3326,3.3345,3.3349,3.3353,3.3441,0,0,3.3364,3.3366,0,0,0,0,0,0,0,0,3.3325,3.333,3.3361,3.3359,3.3355,3.3366,3.3381,3.342,3.3337,3.3342,3.3328,3.3325,3.3356,3.3359,3.3369,3.3442,3.3443,3.3365,3.3367,3.3369,3.337,0,0,0,0,0,0,0,3.3323,3.3329,3.3397,3.3361,3.3358,3.3341,3.3342,3.3388,3.3367,3.3342,3.3336,3.334,3.3354,3.3366,3.3369,3.3443,3.3365,3.3368,3.337,3.3372,3.3593,3.3597,0,0,0,0,0,0,3.3325,3.3328,3.3397,3.3398,3.3332,3.3345,3.3346,3.3366,3.3367,3.3364,3.3342,3.3336,3.3361,3.3365,3.337,3.3476,3.3369,3.3372,3.3374,3.359,3.3594,3.3598,0,0,0,0,0,0,3.3323,3.3332,3.3396,3.3361,3.3368,3.335,3.3373,3.3368,3.338,3.3367,3.3363,3.3358,3.3359,3.3364,3.3425,3.3475,3.3374,3.3377,3.3585,3.3591,3.3596,3.3687,0,0,0,0,0,0,3.3321,3.3332,3.3364,3.3363,3.337,3.345,3.3376,3.3371,3.3386,3.3378,3.3381,3.3378,3.3356,3.342,3.3429,3.3479,3.338,3.3581,3.3588,3.3594,3.368,3.3695,3.3708,0,0,0,0,0,3.3318,3.3389,3.3366,3.3375,3.3411,3.3453,3.3458,3.3431,3.3391,3.3424,3.3417,3.3378,3.3468,3.3426,3.3436,3.3488,3.3577,3.3586,3.3594,3.3673,3.3692,3.3708,0,0,0,0,0,0,3.3396,3.3388,3.3363,3.3435,3.3446,3.3441,3.3482,3.3451,3.3474,3.3465,3.3431,3.3433,3.35,3.3499,3.3453,3.3575,3.3516,3.3526,3.3573,3.3591,3.3605,3.3604,3.3383,0,0,0,0,0,3.3422,3.3456,3.3447,3.3512,3.3519,3.35,3.3517,3.3496,3.3506,3.351,3.3506,3.3517,3.3548,3.3569,3.3597,3.3679,3.368,3.372,3.3734,3.3746,3.3756,3.3802,3.3821,3.3625,3.3625,3.3624,0,0,3.3475,3.3475,3.3498,3.3528,3.3533,3.3572,3.3504,3.3546,3.3574,3.3516,3.3574,3.3572,3.3582,3.3655,3.3687,3.3657,3.381,3.3756,3.3766,3.3769,3.3813,3.3831,3.3848,3.363,3.3629,3.3628,0,0,3.3592,3.3594,3.365,3.3658,3.3667,3.3655,3.3669,3.3669,3.3666,3.3723,3.3681,3.3715,3.3768,3.3778,3.379,3.3915,3.3881,3.3925,3.4,3.4046,3.4061,3.4075,3.4122,3.4139,3.3934,3.3934,3.3935,0,3.3657,3.3712,3.3682,3.3729,3.3744,3.3694,3.3751,3.376,3.3778,3.3791,3.3757,3.3825,3.3828,3.3904,3.3935,3.3945,3.3962,3.3924,3.4061,3.4075,3.4087,3.4132,3.4149,3.394,3.3939,3.3939,3.3938,0,3.3793,3.3832,3.3876,3.3897,3.3917,3.3968,3.3948,3.3972,3.395,3.3942,3.4002,3.4005,3.4033,3.405,3.4028,3.4124,3.4105,3.4067,3.4007,3.4112,3.4153,3.417,3.3947,3.3946,3.3944,3.3943,0,0,3.3959,3.3964,3.3981,3.3991,3.4,3.403,3.408,3.4109,3.4131,3.4146,3.4189,3.4237,3.4203,3.4217,3.4196,3.4236,3.4338,3.4193,3.4193,3.4222,3.4447,3.4477,3.4497,3.4316,3.4319,3.4321,3.4447,0,3.4076,3.4162,3.4138,3.4225,3.4262,3.4216,3.4261,3.4272,3.4266,3.4297,3.429,3.4326,3.4277,3.4285,3.4323,3.4318,3.4383,3.4308,3.4357,3.4359,3.4358,3.4518,3.455,3.4669,3.4463,3.4466,3.4467,0,3.4223,3.4246,3.4337,3.4342,3.4357,3.4397,3.4423,3.4453,3.4465,3.4458,3.4476,3.4448,3.4499,3.4439,3.451,3.446,3.4479,3.4479,3.4483,3.4488,3.4421,3.453,3.4705,3.4724,3.4492,3.449,3.4488,0,3.4338,3.4391,3.4453,3.4463,3.4469,3.45,3.4504,3.4513,3.4533,3.4556,3.4569,3.4597,3.4613,3.4637,3.4618,3.4575,3.4694,3.4631,3.4691,3.4692,3.4719,3.4718,3.4902,3.4728,3.4728,3.4728,3.4727,0,3.4472,3.453,3.4505,3.4544,3.4608,3.4581,3.4646,3.4645,3.4654,3.4693,3.4654,3.4691,3.4663,3.4698,3.4684,3.4747,3.4754,3.4751,3.4747,3.4756,3.4757,3.4769,3.4761,3.4732,3.4731,3.473,3.473,0,3.4612,3.4597,3.4662,3.4664,3.4666,3.4714,3.4716,3.4753,3.4745,3.4794,3.4804,3.4792,3.4832,3.4815,3.4857,3.4847,3.493,3.4913,3.4926,3.4922,3.4985,3.498,3.5185,3.5212,3.5019,3.502,3.5022,0,3.4699,3.4743,3.4751,3.4774,3.4782,3.4819,3.484,3.4815,3.4839,3.4858,3.4893,3.4929,3.4957,3.5024,3.5019,3.5051,3.5037,3.5107,3.5042,3.505,3.5041,3.504,3.5045,3.512,3.5122,3.5124,3.5126,0,3.4857,3.4848,3.4879,3.4909,3.4935,3.4957,3.4976,3.4998,3.4974,3.5003,3.5043,3.5066,3.5109,3.5147,3.5176,3.5182,3.5152,3.5146,3.5162,3.5173,3.5179,3.5179,3.4964,3.5142,3.514,3.5139,3.5138,3.5138,3.4974,3.5013,3.5025,3.5062,3.5074,3.5093,3.5129,3.5126,3.5159,3.5193,3.5177,3.5225,3.5239,3.5276,3.5286,3.5324,3.5297,3.5319,3.5326,3.5332,3.5342,3.5172,3.5329,3.5328,3.5328,3.5327,3.5327,0,3.5132,3.5138,3.5173,3.5201,3.5231,3.52,3.522,3.5247,3.529,3.5305,3.5335,3.5383,3.542,3.542,3.5454,3.5485,3.5473,3.5496,3.5494,3.5496,3.5362,3.5346,3.5506,3.5506,3.5506,3.5506,3.5506,3.5506,3.5218,3.5282,3.5275,3.5346,3.5351,3.5399,3.5413,3.5432,3.5444,3.5501,3.5532,3.5531,3.5541,3.5576,3.561,3.5609,3.5625,3.5654,3.5648,3.5523,3.5505,3.5488,3.5473,3.5657,3.5657,3.5779,3.578,3.5781]},{"header":{"parameterUnit":"m.s-1","parameterCategory":1,"la1":30.2991,"la2":30.254,"lo1":-89.0895,"lo2":-89.0444,"dy":0.0017,"dx":0.0017,"nx":28,"ny":28,"refTime":"2024-08-06T03:00:00:Z","depth":0,"parameterNumber":3,"parameterNumberName":"V-component_of_WINDS"},"data":[0,0,0,0,0,0,0,0,0,0,0,0,0,0,0,0,0,0,0,0,0,0,0,0,0,0,0,0,0,0,0,0,0,0,0,0,0,0,0,0,0,0,0,0,0,0,0,0,0,0,0,0,0,0,0,0,0,0,-2.9691,-2.9692,0,-2.9755,-2.9756,-2.9756,-2.9776,-2.9776,-2.9776,-2.9775,-2.9837,-2.9838,-2.984,0,0,0,0,0,0,0,0,0,0,0,0,0,-2.9583,-2.9585,-2.9691,-2.9692,-2.9692,-2.9755,-2.9756,-2.9757,-2.9776,-2.9776,-2.9776,-2.9775,-2.9836,-2.9838,-2.984,0,0,0,0,0,0,0,0,0,0,0,0,0,-2.9637,-2.9586,-2.9691,-2.971,-2.9712,-2.9755,-2.9756,-2.9757,-2.9776,-2.9776,-2.9775,-2.9775,-2.9835,-2.9838,-2.9841,-2.9867,0,0,-2.9849,-2.9851,0,0,0,0,0,0,0,0,-2.9634,-2.9641,-2.9706,-2.9709,-2.9711,-2.9757,-2.974,-2.9794,-2.9776,-2.9752,-2.9775,-2.9775,-2.981,-2.9815,-2.9828,-2.987,-2.9873,-2.985,-2.9851,-2.9853,-2.9853,0,0,0,0,0,0,0,-2.963,-2.9638,-2.9716,-2.9707,-2.971,-2.9715,-2.9722,-2.975,-2.9783,-2.9754,-2.9756,-2.9763,-2.9811,-2.9825,-2.9829,-2.9874,-2.985,-2.9852,-2.9854,-2.9855,-2.9944,-2.9944,0,0,0,0,0,0,-2.9624,-2.9635,-2.9714,-2.9718,-2.9671,-2.9717,-2.9725,-2.9743,-2.9782,-2.9788,-2.9763,-2.9764,-2.982,-2.9826,-2.9832,-2.9867,-2.9853,-2.9855,-2.9857,-2.9943,-2.9944,-2.9945,0,0,0,0,0,0,-2.9621,-2.963,-2.9711,-2.9677,-2.9688,-2.9719,-2.9739,-2.9744,-2.9758,-2.979,-2.9795,-2.9772,-2.982,-2.9828,-2.9859,-2.987,-2.9857,-2.9859,-2.9942,-2.9943,-2.9944,-2.9938,0,0,0,0,0,0,-2.9618,-2.9629,-2.964,-2.9677,-2.9689,-2.9738,-2.974,-2.9746,-2.9763,-2.9765,-2.9799,-2.9804,-2.9821,-2.9855,-2.9862,-2.9873,-2.9861,-2.9942,-2.9943,-2.9944,-2.9937,-2.9938,-2.9939,0,0,0,0,0,-2.9614,-2.9634,-2.964,-2.965,-2.9704,-2.9739,-2.9746,-2.9766,-2.9764,-2.9775,-2.9796,-2.9803,-2.9867,-2.9858,-2.9866,-2.9878,-2.9941,-2.9942,-2.9944,-2.9936,-2.9938,-2.9939,0,0,0,0,0,0,-2.9595,-2.9639,-2.9647,-2.9679,-2.9706,-2.9742,-2.9756,-2.9766,-2.9792,-2.9792,-2.9814,-2.9822,-2.9852,-2.9868,-2.9857,-2.9908,-2.9905,-2.9908,-2.9896,-2.9898,-2.9899,-2.9894,-2.9864,0,0,0,0,0,-2.9595,-2.9621,-2.9657,-2.9683,-2.9696,-2.9724,-2.974,-2.9754,-2.9781,-2.9791,-2.9814,-2.984,-2.9866,-2.9883,-2.9908,-2.994,-2.9948,-2.9952,-2.9953,-2.9954,-2.9957,-2.9977,-2.998,-2.9949,-2.9949,-2.9949,0,0,-2.9594,-2.9621,-2.9636,-2.968,-2.9701,-2.9728,-2.9733,-2.9759,-2.9779,-2.9795,-2.9827,-2.9845,-2.9875,-2.9907,-2.9922,-2.9922,-2.9967,-2.9956,-2.9956,-2.9959,-2.9979,-2.9981,-2.9984,-2.995,-2.995,-2.995,0,0,-2.9606,-2.9629,-2.9654,-2.9677,-2.9711,-2.973,-2.9736,-2.9773,-2.9786,-2.9819,-2.9832,-2.9856,-2.99,-2.9922,-2.9938,-2.9963,-2.9971,-2.997,-2.9976,-2.9995,-2.9998,-3.0,-3.0011,-3.0014,-2.9973,-2.9973,-2.9973,0,-2.96,-2.9642,-2.9665,-2.9693,-2.9712,-2.973,-2.9756,-2.9776,-2.9816,-2.9829,-2.9828,-2.9887,-2.9907,-2.9946,-2.9953,-2.9965,-2.9973,-2.9966,-2.9996,-2.9998,-3.0001,-3.0011,-3.0015,-2.9973,-2.9973,-2.9973,-2.9973,0,-2.9634,-2.9662,-2.9678,-2.972,-2.9741,-2.9767,-2.9794,-2.9813,-2.9825,-2.9845,-2.9879,-2.9906,-2.9939,-2.9949,-2.996,-2.999,-2.9989,-2.9992,-2.9989,-3.0003,-3.0013,-3.0017,-2.9972,-2.9972,-2.9972,-2.9972,0,0,-2.9633,-2.969,-2.9696,-2.9716,-2.9757,-2.9779,-2.9807,-2.9841,-2.9857,-2.9885,-2.9909,-2.9948,-2.9952,-2.9971,-2.9985,-3.0002,-3.0023,-3.0003,-3.0004,-3.0007,-3.006,-3.0058,-3.0062,-3.0028,-3.0029,-3.003,-3.0058,0,-2.9652,-2.9704,-2.9727,-2.9768,-2.9796,-2.9816,-2.984,-2.9867,-2.9887,-2.9913,-2.9934,-2.9962,-2.9964,-2.9976,-2.9994,-3.0016,-3.0033,-3.0014,-3.0051,-3.0052,-3.0044,-3.0067,-3.0065,-3.009,-3.0062,-3.0062,-3.0063,0,-2.9679,-2.9711,-2.9755,-2.9796,-2.9808,-2.983,-2.9865,-2.989,-2.9922,-2.9935,-2.9958,-2.9973,-3.0003,-2.9999,-3.0041,-3.0028,-3.0045,-3.0058,-3.006,-3.0064,-3.0058,-3.0073,-3.0098,-3.0102,-3.0069,-3.0068,-3.0068,0,-2.9677,-2.9729,-2.9764,-2.978,-2.9828,-2.9843,-2.9863,-2.9896,-2.9916,-2.9946,-2.996,-2.9992,-3.001,-3.0035,-3.0058,-3.0052,-3.0099,-3.0096,-3.0111,-3.0111,-3.012,-3.0119,-3.0149,-3.0129,-3.0129,-3.0129,-3.0129,0,-2.9695,-2.9722,-2.9764,-2.9785,-2.9816,-2.9843,-2.9873,-2.9895,-2.9924,-2.995,-2.9968,-2.9991,-3.002,-3.0047,-3.0065,-3.0099,-3.0106,-3.0118,-3.0123,-3.0117,-3.0116,-3.0128,-3.0128,-3.013,-3.013,-3.013,-3.013,0,-2.9697,-2.9726,-2.9765,-2.9808,-2.982,-2.9841,-2.9878,-2.99,-2.9921,-2.9954,-2.9963,-2.9997,-3.003,-3.0056,-3.0098,-3.0111,-3.0147,-3.0152,-3.0137,-3.014,-3.0154,-3.0153,-3.0193,-3.0201,-3.0175,-3.0175,-3.0176,0,-2.9706,-2.9728,-2.9775,-2.9795,-2.9816,-2.9847,-2.9869,-2.9897,-2.9919,-2.996,-2.9976,-3.0012,-3.0042,-3.0094,-3.0122,-3.0156,-3.0162,-3.0174,-3.0166,-3.0161,-3.0164,-3.0162,-3.0166,-3.0174,-3.0174,-3.0175,-3.0175,0,-2.9722,-2.9736,-2.9768,-2.9805,-2.9832,-2.9862,-2.9892,-2.9907,-2.9941,-2.9965,-3.0001,-3.0024,-3.007,-3.0105,-3.0143,-3.0163,-3.0175,-3.0177,-3.0183,-3.0177,-3.0169,-3.0175,-3.0141,-3.0176,-3.0176,-3.0176,-3.0175,-3.0175,-2.9728,-2.975,-2.9788,-2.9823,-2.985,-2.9879,-2.9903,-2.9929,-2.996,-3.0001,-3.0015,-3.0053,-3.0087,-3.0139,-3.016,-3.019,-3.019,-3.0197,-3.0199,-3.0201,-3.0202,-3.0164,-3.0196,-3.0196,-3.0196,-3.0196,-3.0196,0,-2.9746,-2.9772,-2.9805,-2.9849,-2.9877,-2.9888,-2.9924,-2.9946,-2.998,-3.0012,-3.0042,-3.0085,-3.012,-3.0152,-3.0189,-3.0207,-3.0213,-3.0216,-3.0215,-3.022,-3.0198,-3.0191,-3.021,-3.021,-3.021,-3.021,-3.021,-3.021,-2.9758,-2.9796,-2.9815,-2.9867,-2.9893,-2.9932,-2.9951,-2.9979,-3.0005,-3.0053,-3.0083,-3.0105,-3.0137,-3.0177,-3.021,-3.0219,-3.0232,-3.0233,-3.0243,-3.0223,-3.0221,-3.0219,-3.0212,-3.0236,-3.0236,-3.0263,-3.0263,-3.0263]}]]